Weather Roundup
Issued by NWS

Home | Current Version | Previous Version | Text Only | Print | Product List | Glossary On
Versions: 1 2 3 4 5 6 7 8 9 10 11 12 13 14 15 16 17 18 19 20 21 22 23 24 25 26 27 28 29 30 31 32 33 34 35 36 37 38 39 40 41 42 43 44 45 46 47 48 49 50
000
NZUS93 KARX 242010
HRRWXR

CURRENT HOURLY OBSERVATIONS ACROSS
MUCH OF THE UPPER MISSISSIPPI VALLEY
NATIONAL WEATHER SERVICE LA CROSSE WI
300 PM CDT FRI OCT 24 2014


...SOUTHEAST MINNESOTA...


CITY           SKY/WX    TMP DP  RH WIND       PRES   REMARKS
ROCHESTER      CLOUDY    57  54  89 S9        29.88S
ROCHESTER/MAYO CLOUDY    57  55  93 S6        29.87S
WINONA         CLOUDY    59  57  94 S3        29.86F FOG
AUSTIN         CLOUDY    57  55  94 SW8       29.87R FOG
ALBERT LEA     MOSUNNY   64  57  77 SW7       29.85F
DODGE CENTER   CLOUDY    57  55  94 S12       29.86S
PRESTON        CLOUDY    55  53  92 SW10      29.89S FOG
OWATONNA       MOSUNNY   61  55  82 S5        29.85F FOG
FARIBAULT      PTSUNNY   63  55  77 SW6       29.85S
$$

...ELSEWHERE IN MINNESOTA...


CITY           SKY/WX    TMP DP  RH WIND       PRES   REMARKS
MINNEAPOLIS    PTSUNNY   64  54  69 VRB3      29.82F
INTNL FALLS    CLOUDY    69  40  34 W12G18    29.67F
DULUTH         MOSUNNY   69  51  52 W13       29.76F
RED WING       CLOUDY    59  55  88 SW7G16    29.84S FOG
REDWOOD FALLS  SUNNY     71  51  49 W7        29.83F
MANKATO        SUNNY     68  52  56 W9        29.83F
WORTHINGTON    PTSUNNY   73  41  31 W14       29.87F
FAIRMONT       MOSUNNY   72  25  17 W8        29.85S
$$

...SOUTHWEST WISCONSIN...


CITY           SKY/WX    TMP DP  RH WIND       PRES   REMARKS
LA CROSSE      CLOUDY    65  52  62 S14       29.86F
PRAIRIE DU CHI CLOUDY    64  53  69 SE6       29.88F
BOSCOBEL       MOSUNNY   66  53  63 S10       29.90F
LONE ROCK      MOSUNNY   66  52  60 S8G18     29.92F
PLATTEVILLE    MOSUNNY   60  56  84 S12       29.94F
FORT MC COY    CLOUDY    63  49  59 S7        29.89F
CAMP DOUGLAS   CLOUDY    61  54  77 S10       29.89F
VIROQUA        CLOUDY    63  52  67 S10G16    29.89F
WIS DELLS      MOSUNNY   60  49  66 S10       29.92F
$$

...ELSEWHERE IN WISCONSIN...


CITY           SKY/WX    TMP DP  RH WIND       PRES   REMARKS
MILWAUKEE      PTSUNNY   60  51  72 SW9       29.97F
MADISON        PTSUNNY   58  51  78 S7        29.95F
GREEN BAY      CLOUDY    53  49  86 SW9       29.94S
EAU CLAIRE     CLOUDY    60  50  69 S9        29.85F
BLACK RVR FLS  CLOUDY    64  48  55 S8        29.87F
MEDFORD        PTSUNNY   56  49  77 S9        29.87F
WAUSAU         SUNNY     55  48  77 S6        29.89F
WIS RAPIDS     PTSUNNY   60  49  66 S6        29.91F
MARSHFIELD     CLOUDY    57  50  77 S8        29.88F
RICE LAKE      CLOUDY    59  50  71 S8G16     29.85F
$$

...NORTHEAST IOWA...


CITY           SKY/WX    TMP DP  RH WIND       PRES   REMARKS
DECORAH        CLOUDY    57  55  94 S10       29.88F FOG
MASON CITY     CLOUDY    64  60  87 SW8       29.87F FOG
CHARLES CITY   CLOUDY    55  55 100 S9        29.89F FOG
OELWEIN        FOG       57  57 100 S12       29.91F VSB 1/2
$$

...ELSEWHERE IN IOWA...


CITY           SKY/WX    TMP DP  RH WIND       PRES   REMARKS
DES MOINES     CLOUDY    66  61  84 S10       29.89F HAZE
IOWA CITY      PTSUNNY   63  57  81 S14       29.94F
FORT DODGE     PTSUNNY   70  57  64 W10       29.87F
$$

...NORTHERN ILLINOIS...


CITY           SKY/WX    TMP DP  RH WIND       PRES   REMARKS
CHICAGO-OHARE  PTSUNNY   66  47  50 W8        29.96F
CHICAGO-MIDWAY MOSUNNY   67  50  54 W6        29.97F
MOLINE         MOSUNNY   68  51  54 SW14G23   29.95F HAZE
ROCKFORD       PTSUNNY   62  53  72 SW5       29.99F
PEORIA         MOSUNNY   64  54  69 SW9       30.01F
$$

NOTE: "FAIR" INDICATES FEW OR NO CLOUDS BELOW 12,000 FEET WITH NO
SIGNIFICANT WEATHER AND/OR OBSTRUCTIONS TO VISIBILITY. WIND
SPEEDS ARE IN MILES-PER-HOUR.



USA.gov is the U.S. government's official web portal to all federal, state and local government web resources and services.